Regional Weather Roundup
Issued by NWS Burlington, VT

Home | Current Version | Previous Version | Text Only | Print | Product List | Glossary On
Versions: 1 2 3 4 5 6 7 8 9 10 11 12 13 14 15 16 17 18 19 20 21 22 23 24 25 26 27 28 29 30 31 32 33 34 35 36 37 38 39 40 41 42 43 44 45 46 47 48 49 50
000
ASUS41 KBTV 131530
RWRBTV
VERMONT REGIONAL WEATHER ROUNDUP
NATIONAL WEATHER SERVICE BURLINGTON VT
1100 AM EDT SUN JUL 13 2014

NOTE: "FAIR" INDICATES FEW OR NO CLOUDS BELOW 12,000 FEET WITH NO
SIGNIFICANT WEATHER AND/OR OBSTRUCTIONS TO VISIBILITY.

* THESE REPORTS ARE NOT UNDER NWS QUALITY CONTROL AND/OR DO NOT
  REPORT WEATHER SUCH AS PRECIPITATION AND FOG.

VTZ001>019-131600-
_____VERMONT_____


CITY           SKY/WX    TMP DP  RH WIND       PRES   REMARKS
BURLINGTON     CLOUDY    76  65  68 S17G28    29.88F
MONTPELIER     PTSUNNY   78  66  66 S12G20    29.97F
MORRISVILLE    CLOUDY    77  66  68 S7        29.91F
ST. JOHNSBURY*   N/A     77  64  64 MISG      29.91F
LYNDONVILLE*   FAIR      76  63  65 S7        29.95F
MIDDLEBURY*    CLOUDY    76  66  71 S9        29.92S
RUTLAND*       PTSUNNY   81  66  61 S12       29.94F
SPRINGFIELD    MOSUNNY   75  65  70 SE9G18    29.98F
HIGHGATE*      LGT RAIN  72  66  82 S6        29.85S
NEWPORT*       FAIR     N/A N/A N/A S8        29.91F
BENNINGTON     MOSUNNY   78  68  71 S7G18     29.98S
MT. MANSFIELD*   N/A     64 N/A N/A W9G26       N/A

_____LAKE CHAMPLAIN_____


CITY           SKY/WX    TMP DP  RH WIND       PRES   REMARKS
BURTON ISLAND*   N/A     73  66  78 SE18        N/A
COLCHESTER RF*   N/A     72  66  83 SW21        N/A
DIAMOND ISL*     N/A     75  66  73 S22         N/A

$$

NYZ007-026>031-035-052-083-131600-
_____NORTHERN NEW YORK_____


CITY           SKY/WX    TMP DP  RH WIND       PRES   REMARKS
PLATTSBURGH    PTSUNNY   72  66  81 S10       29.84F
SARANAC LAKE   PTSUNNY   74  64  71 SW17G24   29.88F
MASSENA        LGT RAIN  71  70  96 S8        29.80F FOG
OGDENSBURG*    SUNNY     72  70  94 SW10G16   29.78F FOG
POTSDAM*       LGT RAIN  72  72 100 SW9       29.81S
WATERTOWN      LGT RAIN  75  67  76 S10       29.81F
FT DRUM        DRIZZLE   74  69  84 SW8G18    29.84S
ALBANY         PTSUNNY   77  66  68 S20G28    29.96F
GLENS FALLS    CLOUDY    77  68  73 S14       29.93F

$$
NHZ002-005-011-131600-
_____NEW HAMPSHIRE_____


CITY           SKY/WX    TMP DP  RH WIND       PRES   REMARKS
LEBANON        MOSUNNY   79  65  62 S8        29.95F
KEENE          PTSUNNY   79  61  53 SW15G21   29.99F
MT WASHINGTON  FOG       54  54 100 SW36G48     N/A  VSB 1/8
PLYMOUTH       FAIR      78  64  63 CALM      29.96F
WHITEFIELD     PTSUNNY   80  64  58 VRB7G16   29.95F

$$

_____REGIONAL QUEBEC LOCATIONS_____


CITY           SKY/WX    TMP DP  RH WIND       PRES   REMARKS
MONTREAL       LGT RAIN  72  68  88 SE10      29.80S
QUEBEC CITY    LGT RAIN  72  61  68 E3        29.84F
SHERBROOKE     SUNNY     77  66  69 S9G21     29.88F

_____REGIONAL ONTARIO LOCATIONS_____


CITY           SKY/WX    TMP DP  RH WIND       PRES   REMARKS
OTTAWA         LGT RAIN  68  68 100 S7        29.75F

______KEY______
VSB  - VISIBILITY IN MILES
WCI  - WIND CHILL INDEX
HX   - HEAT INDEX
$$
NNNN



USA.gov is the U.S. government's official web portal to all federal, state and local government web resources and services.